Total_Precipitation_Accumulation
0.00 0.00 0.03 0.05 0.06 0.08 0.19 0.29 0.37 0.34 0.30 0.25 0.15 0.10 0.09 0.09 0.09 0.09 0.10 0.12 0.23 0.26 0.22 0.16 0.16 0.19 0.18 0.17 0.19 0.22 0.25 0.29 0.34 0.38 0.43 0.42 0.33 0.33 0.40 0.43 0.27 0.25 0.17
0.00 0.00 0.04 0.08 0.07 0.05 0.14 0.23 0.35 0.38 0.42 0.29 0.18 0.15 0.13 0.10 0.10 0.09 0.06 0.07 0.14 0.17 0.14 0.14 0.18 0.21 0.21 0.21 0.26 0.32 0.29 0.26 0.36 0.40 0.41 0.37 0.35 0.34 0.32 0.35 0.24 0.22 0.16
0.00 0.00 0.06 0.11 0.09 0.07 0.14 0.24 0.33 0.37 0.46 0.35 0.26 0.20 0.13 0.09 0.12 0.12 0.07 0.11 0.16 0.11 0.06 0.11 0.22 0.26 0.28 0.30 0.35 0.39 0.37 0.32 0.35 0.39 0.39 0.46 0.30 0.29 0.27 0.27 0.26 0.20 0.17
0.00 0.02 0.07 0.10 0.09 0.10 0.18 0.26 0.32 0.37 0.45 0.39 0.28 0.16 0.08 0.09 0.13 0.14 0.23 0.31 0.21 0.07 0.04 0.10 0.23 0.26 0.25 0.29 0.33 0.33 0.33 0.30 0.33 0.29 0.28 0.40 0.40 0.28 0.28 0.29 0.26 0.18 0.16
0.00 0.03 0.11 0.12 0.09 0.11 0.20 0.32 0.36 0.42 0.45 0.38 0.27 0.12 0.08 0.11 0.16 0.25 0.36 0.30 0.13 0.04 0.03 0.08 0.17 0.20 0.19 0.20 0.27 0.29 0.29 0.34 0.39 0.30 0.30 0.40 0.49 0.34 0.28 0.26 0.24 0.17 0.19
0.00 0.02 0.09 0.13 0.09 0.12 0.25 0.40 0.40 0.44 0.48 0.43 0.27 0.13 0.11 0.14 0.15 0.20 0.29 0.25 0.10 0.02 0.02 0.05 0.12 0.17 0.17 0.15 0.20 0.26 0.28 0.35 0.32 0.27 0.35 0.39 0.49 0.32 0.26 0.29 0.31 0.26 0.22
0.00 0.01 0.06 0.11 0.10 0.14 0.28 0.39 0.41 0.46 0.47 0.42 0.25 0.18 0.17 0.16 0.12 0.16 0.20 0.18 0.06 0.01 0.01 0.03 0.08 0.12 0.13 0.14 0.16 0.20 0.23 0.21 0.14 0.19 0.29 0.39 0.39 0.29 0.25 0.36 0.43 0.30 0.24
0.00 0.01 0.04 0.10 0.13 0.17 0.25 0.32 0.35 0.41 0.44 0.39 0.24 0.20 0.19 0.18 0.15 0.14 0.15 0.12 0.03 0.01 0.00 0.01 0.05 0.08 0.08 0.11 0.14 0.18 0.19 0.12 0.06 0.10 0.19 0.32 0.38 0.32 0.27 0.37 0.46 0.38 0.32
0.01 0.01 0.04 0.07 0.08 0.17 0.25 0.29 0.29 0.32 0.36 0.37 0.25 0.20 0.21 0.17 0.11 0.10 0.09 0.04 0.01 0.00 0.00 0.01 0.03 0.03 0.04 0.10 0.13 0.16 0.13 0.08 0.04 0.05 0.09 0.21 0.31 0.26 0.20 0.27 0.34 0.33 0.35
0.02 0.01 0.01 0.03 0.05 0.08 0.12 0.20 0.27 0.28 0.30 0.34 0.26 0.20 0.18 0.11 0.07 0.06 0.03 0.02 0.00 0.00 0.00 0.01 0.01 0.01 0.04 0.10 0.11 0.10 0.09 0.05 0.03 0.04 0.06 0.12 0.21 0.18 0.14 0.15 0.19 0.22 0.22
0.01 0.00 0.00 0.01 0.01 0.04 0.07 0.10 0.22 0.26 0.29 0.33 0.28 0.25 0.19 0.15 0.07 0.04 0.02 0.03 0.01 0.01 0.01 0.02 0.03 0.03 0.03 0.07 0.06 0.04 0.04 0.05 0.03 0.05 0.08 0.12 0.15 0.13 0.12 0.10 0.12 0.14 0.16
0.00 0.00 0.00 0.00 0.00 0.01 0.04 0.09 0.17 0.17 0.14 0.19 0.28 0.29 0.18 0.13 0.09 0.02 0.02 0.03 0.03 0.02 0.01 0.03 0.04 0.02 0.01 0.01 0.01 0.01 0.02 0.02 0.02 0.05 0.08 0.16 0.15 0.09 0.07 0.06 0.06 0.07 0.09
0.00 0.00 0.00 0.00 0.00 0.01 0.07 0.11 0.15 0.20 0.19 0.16 0.15 0.17 0.11 0.04 0.02 0.02 0.04 0.05 0.05 0.04 0.02 0.02 0.01 0.00 0.00 0.00 0.00 0.01 0.01 0.01 0.03 0.06 0.10 0.23 0.27 0.18 0.10 0.06 0.05 0.04 0.05
0.00 0.00 0.01 0.00 0.00 0.01 0.01 0.03 0.07 0.12 0.20 0.21 0.10 0.08 0.05 0.02 0.02 0.02 0.03 0.05 0.05 0.05 0.03 0.00 0.00 0.00 0.00 0.00 0.02 0.04 0.02 0.02 0.09 0.14 0.18 0.35 0.48 0.31 0.18 0.13 0.10 0.09 0.09
0.00 0.01 0.02 0.03 0.04 0.04 0.02 0.01 0.01 0.07 0.16 0.21 0.16 0.09 0.05 0.02 0.02 0.01 0.01 0.02 0.02 0.02 0.01 0.00 0.00 0.00 0.00 0.01 0.04 0.05 0.03 0.04 0.11 0.15 0.24 0.44 0.68 0.68 0.42 0.26 0.16 0.12 0.13
0.01 0.04 0.05 0.05 0.07 0.05 0.03 0.00 0.00 0.04 0.10 0.15 0.16 0.10 0.06 0.01 0.02 0.01 0.01 0.01 0.01 0.02 0.03 0.01 0.00 0.00 0.00 0.00 0.02 0.02 0.03 0.04 0.07 0.13 0.25 0.41 0.52 0.61 0.67 0.56 0.39 0.29 0.20
0.01 0.03 0.02 0.01 0.01 0.01 0.02 0.01 0.01 0.01 0.04 0.11 0.14 0.11 0.07 0.02 0.02 0.02 0.02 0.05 0.05 0.02 0.01 0.01 0.02 0.01 0.00 0.01 0.01 0.01 0.01 0.02 0.03 0.06 0.12 0.21 0.21 0.23 0.39 0.53 0.53 0.46 0.36
0.00 0.01 0.01 0.00 0.00 0.00 0.01 0.02 0.03 0.03 0.07 0.15 0.17 0.14 0.14 0.05 0.04 0.05 0.06 0.10 0.13 0.05 0.02 0.02 0.04 0.02 0.02 0.01 0.01 0.01 0.00 0.00 0.01 0.01 0.03 0.04 0.05 0.06 0.13 0.16 0.18 0.22 0.33
0.00 0.00 0.02 0.03 0.03 0.04 0.05 0.06 0.11 0.14 0.21 0.34 0.33 0.33 0.32 0.17 0.12 0.14 0.19 0.19 0.17 0.14 0.11 0.07 0.05 0.04 0.05 0.04 0.02 0.02 0.00 0.00 0.01 0.01 0.01 0.01 0.01 0.01 0.04 0.02 0.02 0.03 0.04
0.01 0.01 0.04 0.11 0.15 0.21 0.29 0.42 0.55 0.59 0.74 0.96 0.89 0.71 0.51 0.35 0.31 0.34 0.37 0.35 0.28 0.32 0.37 0.18 0.15 0.12 0.09 0.06 0.03 0.01 0.01 0.00 0.00 0.00 0.00 0.00 0.00 0.00 0.00 0.00 0.00 0.00 0.00
0.02 0.02 0.04 0.07 0.15 0.25 0.42 0.68 1.01 1.15 1.16 1.14 1.17 1.02 0.78 0.57 0.58 0.64 0.61 0.59 0.53 0.55 0.53 0.42 0.39 0.29 0.17 0.07 0.07 0.08 0.03 0.01 0.01 0.00 0.00 0.00 0.00 0.00 0.00 0.00 0.00 0.00 0.00
0.04 0.02 0.05 0.07 0.14 0.26 0.45 0.69 0.96 1.12 1.04 0.99 1.01 0.99 0.89 0.76 0.76 0.80 0.85 0.85 0.82 0.89 0.87 0.73 0.71 0.59 0.38 0.20 0.22 0.28 0.15 0.05 0.01 0.00 0.00 0.00 0.00 0.00 0.00 0.00 0.00 0.00 0.00
0.06 0.05 0.07 0.10 0.20 0.39 0.61 0.80 0.83 0.87 0.86 0.88 0.86 0.90 0.94 0.90 0.83 0.83 0.89 0.92 0.90 0.91 0.99 1.03 0.96 0.86 0.67 0.42 0.30 0.33 0.32 0.25 0.09 0.01 0.00 0.00 0.00 0.00 0.00 0.00 0.00 0.00 0.00
0.06 0.07 0.08 0.12 0.26 0.46 0.64 0.72 0.74 0.81 0.83 0.75 0.73 0.78 0.80 0.82 0.84 0.87 0.87 0.93 0.92 0.83 0.88 0.99 0.99 1.00 0.92 0.70 0.48 0.34 0.28 0.25 0.17 0.09 0.03 0.00 0.00 0.00 0.00 0.00 0.00 0.00 0.00
0.06 0.08 0.13 0.22 0.36 0.50 0.61 0.72 0.80 0.74 0.64 0.57 0.51 0.59 0.63 0.71 0.78 0.81 0.84 0.93 0.91 0.85 0.79 0.92 0.97 1.02 0.95 0.85 0.70 0.60 0.51 0.41 0.24 0.19 0.17 0.06 0.01 0.00 0.00 0.00 0.00 0.00 0.00
0.12 0.16 0.22 0.33 0.46 0.60 0.67 0.71 0.69 0.66 0.57 0.49 0.41 0.44 0.54 0.63 0.77 0.72 0.68 0.75 0.78 0.79 0.79 0.85 0.93 1.02 1.02 1.00 0.85 0.67 0.59 0.53 0.41 0.30 0.25 0.18 0.07 0.01 0.00 0.00 0.00 0.00 0.00